Temp
23 23 23 22 20 18 20 23 25 25 25 23 23 24 23 23 23 20 17 17 18 18 17 17 17 18 18 18 18 18 18 18 17 18 17 17 17 17 16 16 16 17 17 17 17 16 15 17 16
23 23 23 17 19 19 20 21 24 24 23 21 22 22 23 24 18 15 15 17 18 18 17 17 17 18 18 18 18 17 17 17 17 17 16 16 15 15 15 15 15 15 15 16 15 15 14 15 15
23 23 19 18 16 19 21 23 23 22 22 23 23 22 22 22 17 16 18 17 17 17 17 17 17 17 17 17 17 17 16 16 16 16 15 15 14 14 13 13 14 14 14 14 14 13 14 14 15
23 21 17 19 20 20 23 24 21 21 23 22 22 23 21 20 19 19 18 17 17 17 16 16 16 15 16 17 16 15 15 15 15 14 14 14 13 13 13 13 13 14 13 13 13 13 13 15 15
22 16 19 20 20 21 23 23 18 21 22 22 22 22 21 20 20 19 17 17 17 16 16 16 14 14 15 16 15 14 15 14 14 14 14 14 13 13 13 13 13 13 13 12 12 12 13 13 13
18 16 19 19 20 22 24 21 21 21 21 21 22 21 21 18 18 18 17 17 17 16 16 15 14 14 14 14 14 14 14 15 16 16 16 15 14 14 14 15 15 14 13 13 13 12 12 12 12
19 17 19 20 21 23 24 20 21 21 20 21 20 21 19 14 18 18 17 16 16 16 16 15 14 14 14 14 16 15 14 14 14 14 13 13 14 15 15 13 13 12 12 12 12 12 13 12 12
17 17 21 20 22 23 25 23 24 21 22 20 19 21 20 15 17 17 16 15 15 15 15 15 14 14 14 15 15 15 14 14 14 14 15 15 15 15 15 15 14 11 12 12 12 13 15 14 14
19 18 18 21 24 24 24 24 24 22 23 21 20 20 20 18 17 16 15 14 14 14 15 15 15 15 15 15 14 13 14 15 14 13 14 15 15 15 15 16 16 16 15 14 14 14 14 13 13
18 16 19 21 24 24 24 22 23 23 21 21 21 19 17 16 15 14 14 13 13 13 14 15 15 15 15 15 14 14 15 16 15 14 15 15 14 14 15 15 14 14 14 14 13 13 13 13 13
19 19 19 22 24 23 24 22 21 21 20 19 20 19 13 13 13 13 14 14 14 14 14 14 14 14 15 14 14 14 14 15 14 14 14 13 13 14 14 14 13 13 13 13 13 13 13 13 13
21 19 21 22 23 22 23 22 22 18 24 21 18 19 12 12 12 13 13 14 15 14 15 15 14 14 14 14 14 14 14 14 14 13 13 12 13 13 13 13 13 13 13 13 13 13 13 13 12
20 20 21 20 19 19 21 20 20 19 19 18 18 17 14 14 14 14 15 15 14 14 15 15 14 14 14 13 14 14 14 14 13 12 12 12 13 13 13 13 13 13 13 13 13 13 13 13 12
21 21 19 19 20 20 21 20 20 22 20 17 17 17 15 14 14 14 14 14 15 15 15 15 14 14 14 13 13 13 13 13 12 12 12 11 12 13 13 13 13 12 12 12 12 12 12 12 12
21 20 18 20 20 20 18 19 17 22 21 18 18 16 16 14 16 14 16 15 16 16 16 16 15 14 13 13 13 13 13 12 12 12 11 11 12 13 13 13 12 12 12 12 11 11 11 11 11
20 20 18 21 18 20 20 20 20 19 19 19 18 16 16 16 15 17 17 17 16 15 16 16 15 14 14 13 13 12 12 11 11 11 11 11 12 12 12 12 12 11 11 11 12 12 11 11 11
17 17 16 18 18 19 18 19 20 19 17 18 18 16 16 17 16 17 17 18 18 17 16 15 15 14 14 13 12 12 12 11 11 11 11 11 11 11 11 11 11 11 11 11 11 11 10 10 9
17 15 16 19 20 18 17 17 20 20 18 17 17 15 15 16 18 20 18 19 18 17 16 16 14 13 13 13 12 11 11 10 10 10 10 10 10 11 11 11 11 11 11 11 11 10 9 8 7
18 17 17 18 20 19 17 18 20 21 18 15 17 19 20 20 21 21 20 21 17 16 14 13 12 12 12 12 11 10 9 9 9 9 10 10 10 10 10 10 10 10 10 10 10 9 8 7 6
17 18 18 20 18 16 18 19 20 19 21 21 20 20 19 19 21 15 17 18 16 15 13 12 12 12 11 11 9 9 8 9 9 9 8 9 9 9 9 9 10 9 9 9 9 8 7 5 5
17 17 18 18 18 16 15 18 17 17 18 20 16 18 20 21 22 16 13 14 13 12 12 11 11 11 11 10 9 9 7 7 7 7 7 7 8 8 9 9 9 9 8 8 7 7 7 5 2
19 17 18 17 17 18 18 19 19 18 18 18 17 18 18 19 18 16 12 9 11 11 11 10 10 10 10 10 9 8 8 7 6 6 6 7 7 7 8 8 8 8 7 6 6 6 7 6 3
19 18 17 17 15 14 15 14 20 18 17 19 21 19 20 21 15 14 11 12 11 11 10 10 10 10 9 9 9 8 7 7 7 6 6 6 6 6 7 7 7 7 7 6 5 5 7 6 4
17 18 16 12 13 16 16 16 20 16 19 19 20 20 20 21 16 13 12 11 10 10 9 9 9 9 9 9 8 8 8 7 7 6 6 6 5 5 5 6 6 6 6 5 5 4 5 5 3
17 16 13 13 11 15 16 13 22 20 21 19 21 21 20 20 14 12 10 8 7 8 9 8 8 8 8 8 8 9 8 7 7 6 5 4 4 4 4 5 5 5 5 4 3 3 3 4 3
14 16 16 13 16 20 10 15 19 18 19 19 17 18 18 16 13 12 9 9 8 8 8 8 8 7 7 8 8 7 7 7 6 7 6 5 4 4 5 4 4 4 4 3 3 3 3 3 1
15 14 17 13 4 9 18 18 20 19 19 18 17 16 16 15 13 11 9 7 8 7 8 8 8 8 8 7 6 6 6 6 6 6 6 6 5 4 5 4 3 3 3 3 3 2 2 2 1
15 15 14 12 14 13 16 17 20 19 20 17 17 18 16 13 13 11 9 8 8 8 8 9 9 8 7 6 7 6 6 6 5 6 6 5 5 4 5 4 3 2 2 2 2 1 1 1 0
14 14 14 15 13 17 17 18 17 18 18 17 17 18 13 13 12 11 10 9 10 9 9 8 8 8 8 8 7 6 6 6 5 5 5 6 5 5 5 4 3 2 1 1 1 0 0 0 -0
14 16 17 16 15 12 14 16 19 19 18 19 18 18 17 13 12 11 10 9 8 8 8 8 7 8 9 8 6 6 5 5 5 4 5 5 4 5 4 3 3 2 1 1 0 -0 -1 -0 -1
Height
814 814 813 813 841 849 849 832 810 812 810 804 803 804 809 807 814 835 812 812 815 817 820 824 826 828 829 831 831 833 834 835 835 835 835 837 838 838 838 838 838 838 839 838 838 839 838 837 838
815 814 814 825 852 861 851 824 815 810 804 805 803 805 808 809 808 811 812 812 813 815 818 820 823 825 827 828 830 832 833 834 835 835 835 836 837 837 837 838 838 839 839 839 839 839 837 837 837
815 815 823 838 857 857 844 816 811 807 805 804 806 802 805 805 805 805 805 808 812 815 817 818 821 822 825 826 828 830 832 832 834 834 834 835 835 836 836 837 837 838 838 837 838 837 837 836 836
814 817 827 845 847 834 819 808 810 810 804 802 803 807 801 799 798 799 803 806 810 813 815 817 819 821 822 824 827 829 830 831 832 833 833 834 835 835 835 835 835 836 836 837 837 836 835 835 835
815 824 843 845 840 823 808 802 811 810 806 803 802 806 804 797 797 799 802 805 807 811 814 816 818 819 820 822 824 826 828 828 830 831 832 832 833 834 834 835 834 834 834 835 835 836 835 835 834
825 830 849 852 836 815 803 803 807 807 804 803 804 805 800 795 795 798 801 804 807 809 812 815 817 818 819 821 823 824 825 826 828 829 829 830 831 832 834 834 834 834 835 836 835 835 835 836 834
826 839 844 837 831 818 803 801 805 804 805 803 797 805 796 795 795 797 800 803 806 808 810 813 815 817 818 819 821 822 823 825 826 827 828 828 830 832 833 833 834 835 836 835 834 834 834 834 833
823 833 834 831 827 818 797 798 793 799 800 792 792 801 797 786 792 798 801 803 805 807 809 810 813 814 815 816 818 819 821 822 824 825 826 828 829 830 831 832 833 834 833 833 833 833 833 832 832
816 840 846 828 816 809 798 801 792 791 792 792 790 787 784 784 791 796 800 802 803 804 805 806 808 811 813 814 816 818 819 820 822 824 825 826 828 829 830 831 831 831 831 833 832 833 832 831 830
826 844 829 810 799 802 797 800 794 795 794 792 788 784 785 786 789 791 792 792 795 797 798 801 803 806 809 811 813 815 817 818 819 821 823 825 826 827 828 829 830 830 831 831 830 831 830 830 829
821 829 813 801 795 794 795 796 791 795 796 788 785 778 783 786 787 786 786 785 781 788 794 795 798 802 804 806 809 812 814 815 817 819 820 822 823 824 825 827 828 829 830 830 829 829 828 828 827
819 809 805 796 792 794 796 789 790 792 770 770 771 771 777 780 780 778 779 779 781 783 786 790 795 798 801 804 806 809 810 812 814 816 818 820 821 822 824 825 826 827 828 829 829 829 828 827 827
812 804 798 794 796 796 792 793 790 781 767 768 767 768 770 770 769 769 770 773 777 778 780 783 789 792 796 800 803 805 807 809 812 814 816 818 819 820 821 823 824 826 827 828 828 828 827 826 826
801 800 798 793 790 792 793 786 787 761 761 763 764 761 762 763 759 764 764 762 766 769 772 778 782 787 791 794 798 801 804 807 810 812 814 816 817 818 819 820 822 824 826 826 826 825 825 824 824
800 806 800 784 785 789 789 792 787 754 761 761 759 755 755 752 753 750 745 750 751 755 762 767 773 780 785 788 793 797 800 803 805 808 811 813 814 814 815 817 819 821 823 823 824 823 823 823 822
807 809 816 780 787 781 785 788 761 756 762 758 754 752 749 743 739 737 738 740 744 749 752 757 764 769 776 781 786 791 795 798 801 803 806 808 809 810 812 814 817 818 820 821 821 820 821 820 820
819 822 820 800 780 782 787 783 755 754 760 757 750 748 743 737 732 726 728 730 734 737 743 748 754 758 766 774 781 786 791 794 797 800 802 805 807 808 810 812 814 816 817 818 818 819 819 819 818
817 823 813 802 781 785 788 778 758 751 756 754 748 745 740 734 719 714 718 722 725 729 732 739 745 751 760 769 777 783 787 790 793 795 798 801 803 805 807 808 811 812 814 815 816 817 817 818 817
801 808 805 790 775 780 780 770 760 747 750 753 744 734 727 720 701 707 709 713 717 721 725 729 736 742 751 759 766 774 776 781 785 789 792 795 798 800 802 805 807 809 811 813 814 815 816 817 815
802 800 796 777 775 785 773 759 749 750 738 730 730 721 716 709 697 700 702 706 707 709 714 720 726 731 740 748 757 765 769 774 779 783 787 790 793 796 798 800 803 806 808 810 812 813 814 815 816
793 799 785 784 779 778 777 754 755 741 733 722 722 712 705 694 688 690 696 697 700 703 705 711 718 725 734 742 751 759 767 773 776 778 781 784 789 792 794 796 799 802 804 806 809 811 811 813 816
778 780 781 786 790 785 772 733 740 734 727 720 714 705 699 688 686 684 687 690 692 695 702 708 715 723 731 737 743 747 751 758 762 766 772 778 783 786 789 792 795 799 801 802 804 806 806 808 813
766 773 780 780 790 789 784 790 718 724 729 714 698 696 687 676 679 678 681 680 683 691 697 704 710 718 725 731 737 743 749 753 756 762 769 775 779 783 786 790 793 795 797 800 802 802 801 803 807
769 769 782 796 796 779 773 780 697 732 716 707 696 686 679 668 670 673 674 678 683 690 695 701 708 714 719 725 732 736 741 745 750 754 760 765 770 775 780 785 790 794 796 797 800 801 800 800 803
771 780 804 807 821 778 750 771 709 710 698 699 688 678 670 665 667 673 676 677 680 684 690 697 703 708 712 717 722 726 731 736 741 745 752 758 762 766 771 776 781 788 793 797 798 799 799 797 800
772 770 780 800 776 739 778 746 711 699 690 685 687 681 673 671 670 666 669 671 675 680 684 692 698 702 706 707 710 717 722 729 735 741 746 749 755 760 767 771 775 780 785 790 793 797 797 795 797
766 775 750 770 824 799 724 711 694 694 692 687 688 685 673 662 668 667 669 670 671 677 681 683 692 695 700 704 709 711 718 723 726 731 739 744 750 754 763 769 773 776 779 783 786 789 790 791 793
756 754 768 773 770 775 737 722 699 696 693 691 685 682 673 669 667 670 668 673 673 675 678 683 685 688 692 702 705 708 710 714 722 725 729 738 744 749 755 761 767 772 775 777 781 784 784 783 785
760 758 753 748 752 730 732 714 698 693 688 692 685 677 680 679 670 669 666 667 672 676 679 678 682 685 687 690 693 698 703 705 713 716 719 726 734 742 747 750 758 765 770 773 775 777 780 777 777
746 740 730 733 734 743 730 716 676 677 679 678 678 674 672 676 671 667 666 667 669 671 673 670 673 675 674 676 683 687 694 697 702 706 710 717 724 731 739 744 749 754 759 764 768 769 773 772 773
Wind_Speed
0 3 4 4 4 5 4 5 1 2 1 2 1 3 6 2 5 4 11 22 17 24 23 21 20 19 18 14 12 13 12 11 11 11 11 10 9 7 7 8 8 6 5 4 5 6 7 4 4
1 2 3 2 4 2 5 5 5 4 4 5 2 4 1 5 3 6 13 22 22 23 24 22 21 20 21 21 18 15 14 11 8 9 8 8 9 9 8 8 9 8 7 5 5 9 9 7 6
0 2 3 4 3 4 4 5 6 2 2 4 2 1 5 4 3 17 9 27 24 23 22 22 22 21 21 20 19 15 12 12 11 9 10 10 9 10 9 9 8 7 9 9 8 8 8 7 6
1 4 4 3 5 7 6 5 5 5 2 1 2 2 2 3 7 16 23 28 26 24 22 22 20 18 19 19 17 15 14 14 14 12 12 12 10 9 9 9 8 7 8 8 8 9 8 6 6
3 3 2 1 5 6 6 3 9 5 3 4 5 4 4 3 7 18 30 30 29 25 23 22 20 18 18 18 18 18 18 16 15 14 13 11 10 9 8 8 7 8 9 9 9 9 9 9 9
3 3 2 3 5 5 4 6 5 5 3 2 3 2 5 3 18 25 30 29 28 27 25 23 22 21 20 20 19 19 18 16 14 13 12 11 10 10 10 10 9 9 9 9 9 10 10 10 10
5 3 4 4 5 5 5 8 5 6 5 6 2 6 2 6 21 28 29 28 28 26 27 26 24 23 22 21 20 19 19 17 16 14 14 14 13 12 11 11 10 10 10 10 10 9 8 9 9
5 4 3 4 3 6 2 3 1 7 8 1 8 6 6 7 25 25 25 26 26 27 26 27 26 25 25 23 21 20 19 17 17 17 16 15 13 12 11 10 10 10 9 9 9 7 6 7 7
3 3 3 5 3 5 0 3 2 2 1 3 7 4 2 9 27 26 25 26 27 29 30 29 29 28 26 24 24 23 21 18 18 19 18 16 15 13 12 10 8 7 7 7 7 7 7 8 8
4 3 8 6 2 4 3 6 4 2 5 5 5 3 4 24 32 26 25 28 34 36 36 33 32 32 29 27 27 25 22 21 21 20 19 17 16 14 12 10 9 8 7 7 8 8 9 9 9
5 6 5 6 5 4 4 3 5 5 9 9 10 10 9 18 22 23 27 31 43 41 37 37 36 34 32 30 29 26 25 24 23 21 20 18 16 15 12 9 8 6 7 6 7 8 9 10 10
4 9 7 6 4 3 4 2 5 10 20 8 13 4 9 14 15 25 26 33 35 40 41 39 37 36 34 30 30 28 28 27 25 23 21 21 19 16 14 11 8 6 5 5 6 7 8 9 9
7 5 7 7 8 6 4 11 8 13 14 9 9 8 12 16 21 27 32 31 32 37 42 42 40 39 37 34 32 31 30 28 25 24 23 22 20 18 15 13 10 7 4 3 4 6 8 8 9
2 5 7 7 10 7 7 8 6 21 5 12 11 16 12 15 23 22 28 34 38 40 43 43 43 42 39 38 35 34 31 27 26 25 25 23 21 19 17 14 11 8 5 2 3 5 7 9 9
3 8 7 10 7 8 7 8 11 25 2 11 11 12 11 18 20 29 40 37 45 46 43 44 45 44 42 40 37 35 32 30 29 27 26 25 23 21 18 16 13 10 6 3 2 4 6 7 9
3 1 5 2 7 4 8 14 13 15 7 17 14 12 11 15 18 35 35 40 39 39 43 44 46 47 45 43 40 37 34 32 30 28 28 27 25 22 20 18 15 10 7 3 1 4 6 8 11
2 6 8 12 10 5 7 11 12 6 9 12 13 12 13 15 13 29 34 42 41 43 43 44 46 48 48 45 41 37 34 32 32 30 29 27 25 23 21 19 16 12 8 4 1 2 5 8 12
8 6 6 8 4 5 7 16 16 11 8 12 13 12 11 14 23 27 30 39 42 43 43 44 45 46 47 43 39 35 34 33 32 32 30 28 27 25 23 21 17 14 10 7 3 0 3 6 12
3 6 8 7 10 6 10 17 18 22 10 11 16 19 20 21 26 23 27 32 37 38 39 43 44 47 47 46 43 38 39 38 35 34 32 31 30 28 26 23 20 16 12 9 6 3 1 4 11
12 18 20 16 15 6 16 23 19 12 18 21 19 22 21 19 21 7 20 26 34 39 41 43 46 49 50 47 42 32 38 41 39 36 34 33 31 30 27 25 22 18 15 11 8 6 3 3 8
15 15 18 19 6 5 9 20 12 13 15 20 14 20 21 25 23 12 9 22 28 33 41 44 46 48 48 45 42 31 31 28 34 36 35 35 33 31 29 26 23 20 16 13 12 9 5 5 4
24 12 14 9 4 12 4 24 7 8 12 12 14 17 19 23 17 14 9 10 26 33 34 37 41 44 45 46 45 41 35 26 33 35 41 38 35 33 31 28 25 21 18 17 14 11 6 4 4
21 4 6 3 4 5 4 5 4 8 7 12 15 15 19 20 13 13 11 18 26 29 35 38 42 44 44 48 45 43 34 30 32 35 39 38 36 34 32 29 27 25 22 18 16 14 9 5 4
1 3 4 4 1 11 10 9 7 6 7 6 10 15 16 18 10 8 6 14 20 26 31 37 40 42 44 47 45 45 43 38 33 38 39 42 40 37 34 31 29 25 22 20 18 15 10 7 5
4 5 3 3 1 12 9 6 20 7 9 11 14 16 14 14 6 7 9 10 18 29 33 34 38 37 45 47 49 50 48 45 43 41 40 39 42 44 41 36 32 28 24 20 18 15 12 8 7
11 10 7 7 10 20 4 10 11 11 12 11 11 13 12 9 7 10 10 11 18 24 31 31 36 35 42 49 50 49 47 46 42 43 41 42 44 45 44 39 35 30 26 23 19 16 12 9 9
2 6 11 2 2 1 9 14 10 2 8 7 10 13 17 11 8 9 7 9 17 23 29 36 36 36 42 43 39 43 44 44 43 43 43 43 41 42 42 40 35 31 29 26 22 19 16 12 9
7 3 1 2 5 8 11 6 15 9 5 8 15 17 18 9 3 2 5 7 15 22 29 34 37 40 36 38 41 42 44 47 41 42 43 43 41 39 40 41 37 33 30 27 24 21 18 14 10
2 5 5 3 4 12 16 14 6 8 1 6 12 12 10 10 5 7 7 10 18 22 27 32 35 35 37 44 46 44 46 47 46 45 43 45 43 41 41 43 40 36 32 29 26 22 19 16 13
7 16 17 10 11 5 5 11 30 29 18 20 18 12 7 9 10 8 8 6 13 21 26 35 35 39 49 47 44 47 44 46 47 47 46 45 43 41 42 44 42 40 36 32 28 25 23 18 16
Wind_Direction
41 330 344 32 39 57 277 270 256 176 159 243 140 151 183 123 164 206 148 175 174 173 175 174 174 169 159 153 154 148 141 142 136 137 133 135 122 122 111 98 95 113 108 75 53 38 33 60 54
0 22 50 79 87 23 270 255 212 212 183 143 128 109 111 216 141 146 148 181 182 176 179 180 178 174 173 175 172 166 164 153 152 145 148 153 120 125 119 106 96 86 71 72 52 38 30 27 32
16 7 84 101 122 199 229 241 216 229 196 189 122 295 162 206 166 172 185 174 178 180 182 184 180 179 182 183 180 177 168 167 165 162 128 125 117 112 106 99 91 83 71 64 50 33 22 13 8
90 24 31 95 235 257 232 238 198 158 298 349 125 236 293 197 174 182 171 177 180 179 180 181 176 174 179 181 171 164 161 162 166 149 136 128 122 113 103 95 92 87 77 63 49 40 28 9 1
60 60 62 299 255 257 254 209 168 179 204 203 158 252 248 227 185 172 171 180 183 181 183 180 172 172 173 170 164 163 158 158 152 148 149 148 140 126 113 103 99 89 78 66 57 47 41 34 29
43 95 68 239 250 257 261 174 177 199 208 158 176 168 246 225 168 170 174 183 189 185 185 183 177 176 172 168 167 164 163 166 168 168 157 148 143 138 129 117 111 102 90 79 68 57 54 50 50
114 94 219 235 257 296 232 154 192 203 184 236 167 170 255 194 178 173 179 188 189 191 189 188 185 181 176 174 175 173 170 170 167 161 155 148 142 137 132 123 112 106 95 84 75 71 53 49 45
112 102 284 257 254 269 273 200 205 170 235 86 164 233 252 215 178 177 181 188 192 195 197 196 194 189 184 182 181 179 180 177 173 168 164 157 147 142 140 135 120 107 95 86 78 68 50 42 36
95 69 241 247 230 266 188 241 263 334 200 222 208 184 277 162 171 174 179 189 196 202 204 202 199 196 192 191 188 187 189 188 182 174 166 159 160 158 154 151 138 123 103 87 71 56 47 44 37
113 147 226 219 223 236 242 209 228 211 237 241 271 255 142 162 172 178 188 194 198 203 205 206 203 200 198 197 196 195 197 192 183 178 177 176 170 165 159 150 136 121 97 78 65 49 39 33 29
188 212 223 263 244 212 234 236 204 200 255 214 215 230 168 175 185 195 202 202 203 208 208 207 207 204 202 200 199 198 196 189 184 184 182 178 174 169 161 155 139 121 100 77 56 39 30 24 20
223 238 229 262 254 291 255 249 236 198 246 200 226 196 167 191 199 204 209 211 209 212 213 212 209 207 205 204 202 200 195 194 193 190 188 185 180 175 170 164 154 140 109 72 47 33 27 20 13
222 249 237 252 278 262 289 245 246 263 246 244 242 198 198 204 212 216 218 221 217 216 217 215 210 209 208 207 206 201 201 202 197 194 192 191 188 182 178 174 170 161 138 99 43 28 24 17 10
251 276 272 267 256 254 213 267 145 267 251 239 241 239 215 210 217 217 222 222 221 222 222 217 214 212 211 209 208 207 205 203 199 198 198 195 196 190 184 182 177 171 161 117 52 31 17 6 360
313 310 309 254 246 235 179 285 223 246 248 275 250 249 236 221 220 218 225 220 222 224 222 218 215 212 212 212 212 210 208 205 204 203 201 200 197 194 191 187 183 179 169 140 79 37 15 0 354
314 342 303 313 140 250 143 264 248 251 210 257 263 260 245 247 224 231 230 231 228 222 221 219 215 213 212 212 211 209 209 208 208 205 205 202 200 197 193 191 188 180 171 163 72 12 359 356 345
270 236 218 303 206 156 184 249 265 231 202 256 264 261 259 267 253 241 230 232 232 229 223 218 213 212 211 212 211 210 210 210 210 209 207 204 201 199 198 193 188 183 184 183 179 1 355 348 339
222 219 246 239 246 194 231 251 269 269 200 240 262 268 262 257 254 251 232 235 234 231 224 219 210 209 206 207 207 208 209 211 211 210 207 206 204 201 198 196 192 187 189 185 187 245 352 349 342
209 228 235 251 268 235 234 246 250 266 268 253 258 261 259 256 262 244 235 237 230 225 213 210 200 203 199 199 196 198 201 205 208 211 210 209 207 203 200 198 193 191 192 187 186 183 76 10 358
243 256 262 270 257 215 266 262 262 256 263 261 257 261 257 256 260 236 227 228 219 213 207 199 198 197 197 195 194 195 200 205 208 209 210 210 208 205 202 200 196 194 192 189 191 197 170 72 19
233 237 254 257 317 241 290 276 260 250 254 263 249 248 261 258 268 253 210 218 210 198 198 194 194 195 193 195 192 193 200 205 206 209 210 210 210 207 206 201 200 198 196 194 194 196 180 139 102
261 225 256 264 304 278 129 293 235 251 245 253 254 259 252 261 258 257 210 198 200 202 197 191 189 193 192 197 194 192 192 196 205 206 209 209 209 209 207 204 201 202 199 197 196 194 188 153 127
254 205 256 238 229 322 198 264 184 209 248 247 249 249 263 265 237 237 213 210 201 195 189 188 190 193 194 199 199 197 196 203 208 208 210 210 210 212 209 206 204 203 202 199 199 193 189 189 164
147 90 44 57 91 266 186 200 300 175 215 260 258 253 249 261 259 228 209 178 178 186 185 185 189 191 198 201 203 204 204 205 201 205 207 209 209 209 210 208 209 208 205 202 200 200 196 182 191
154 107 297 309 63 252 184 216 254 267 239 226 249 251 258 254 221 192 185 171 164 177 182 185 188 190 200 203 206 211 212 210 208 207 206 205 207 209 208 206 205 207 207 204 201 198 198 195 205
213 189 195 209 256 274 118 247 268 224 240 250 286 279 289 292 229 207 201 182 180 181 183 185 192 196 201 205 207 209 210 214 213 218 214 212 210 212 211 207 206 203 202 201 201 206 209 202 205
183 189 235 325 43 351 261 272 281 234 279 301 289 293 277 259 238 227 188 191 175 184 190 192 199 201 207 209 207 209 211 215 213 217 221 221 218 215 213 210 205 203 202 201 202 204 206 206 211
190 173 79 209 201 249 274 257 266 295 280 338 350 332 317 307 328 251 190 213 202 198 201 204 206 208 206 212 214 215 215 219 218 221 219 221 220 217 214 207 205 203 201 200 203 205 204 202 203
192 243 233 211 191 253 260 270 190 215 135 293 306 317 315 302 250 232 222 218 218 217 214 213 214 212 213 219 216 217 220 220 220 222 221 221 220 217 214 205 202 202 201 202 204 205 208 204 199
221 261 239 237 240 219 233 257 284 271 275 287 278 286 331 269 249 230 229 221 217 220 218 216 215 215 220 218 216 218 219 221 218 220 222 221 217 214 212 205 202 202 202 204 205 205 207 204 199